TimeEDT,TemperatureF,Dew PointF,Humidity,Sea Level PressureIn,VisibilityMPH,Wind Direction,Wind SpeedMPH,Gust SpeedMPH,PrecipitationIn,Events,Conditions,WindDirDegrees,DateUTC
12:53 AM,75.9,75.0,97,29.97,10.0,Calm,Calm,-,N/A,,Partly Cloudy,0,2012-10-08 04:53:00
1:53 AM,75.0,73.9,96,29.96,10.0,Calm,Calm,-,0.01,,Scattered Clouds,0,2012-10-08 05:53:00
2:53 AM,75.0,73.9,96,29.95,10.0,Calm,Calm,-,N/A,,Clear,0,2012-10-08 06:53:00
3:53 AM,75.0,73.9,96,29.94,10.0,Calm,Calm,-,0.00,,Partly Cloudy,0,2012-10-08 07:53:00
4:53 AM,73.9,73.0,97,29.94,9.0,Calm,Calm,-,N/A,,Clear,0,2012-10-08 08:53:00
5:53 AM,73.9,73.0,97,29.96,10.0,NW,3.5,-,N/A,,Partly Cloudy,320,2012-10-08 09:53:00
6:24 AM,75.2,73.4,94,29.98,10.0,Calm,Calm,-,N/A,,Mostly Cloudy,0,2012-10-08 10:24:00
6:53 AM,75.0,73.0,94,29.99,4.0,Calm,Calm,-,0.03,Rain-Thunderstorm,Light Thunderstorms and Rain,0,2012-10-08 10:53:00
7:00 AM,73.4,73.4,100,29.99,2.5,North,5.8,-,0.03,Rain-Thunderstorm,Heavy Thunderstorms and Rain,350,2012-10-08 11:00:00
7:06 AM,75.2,73.4,94,30.00,5.0,NW,5.8,-,0.04,Rain-Thunderstorm,Light Thunderstorms and Rain,320,2012-10-08 11:06:00
7:23 AM,73.4,69.8,88,30.00,10.0,NNW,6.9,-,0.04,,Mostly Cloudy,330,2012-10-08 11:23:00
7:53 AM,73.0,71.1,93,30.00,10.0,Calm,Calm,-,0.04,,Partly Cloudy,0,2012-10-08 11:53:00
8:53 AM,77.0,73.9,90,30.01,10.0,Calm,Calm,-,N/A,,Partly Cloudy,0,2012-10-08 12:53:00
9:11 AM,78.8,73.4,83,30.02,10.0,Calm,Calm,-,N/A,,Mostly Cloudy,0,2012-10-08 13:11:00
9:33 AM,80.6,71.6,74,30.02,10.0,Calm,Calm,-,N/A,,Scattered Clouds,0,2012-10-08 13:33:00
9:53 AM,82.0,73.0,74,30.03,10.0,Calm,Calm,-,N/A,,Clear,0,2012-10-08 13:53:00
10:53 AM,82.9,73.0,72,30.04,10.0,NE,5.8,-,N/A,,Clear,40,2012-10-08 14:53:00
11:53 AM,82.9,73.9,74,30.03,10.0,ENE,9.2,-,N/A,,Scattered Clouds,60,2012-10-08 15:53:00
12:53 PM,82.9,73.9,74,30.01,10.0,East,6.9,-,N/A,,Clear,90,2012-10-08 16:53:00
1:53 PM,84.0,73.0,69,29.99,10.0,East,8.1,-,N/A,,Partly Cloudy,80,2012-10-08 17:53:00
2:53 PM,82.9,73.0,72,29.95,10.0,East,10.4,-,N/A,,Clear,80,2012-10-08 18:53:00
3:53 PM,82.9,75.0,77,29.94,10.0,East,6.9,-,N/A,,Partly Cloudy,80,2012-10-08 19:53:00
4:53 PM,82.0,73.9,76,29.95,10.0,ESE,11.5,-,N/A,,Clear,120,2012-10-08 20:53:00
5:53 PM,82.0,75.0,79,29.94,10.0,East,4.6,-,N/A,,Mostly Cloudy,80,2012-10-08 21:53:00
6:53 PM,80.1,75.0,85,29.96,10.0,ESE,3.5,-,N/A,,Partly Cloudy,110,2012-10-08 22:53:00
7:53 PM,79.0,75.9,90,29.96,10.0,Calm,Calm,-,N/A,,Clear,0,2012-10-08 23:53:00
8:53 PM,78.8,75.2,89,29.98,10.0,Calm,Calm,-,N/A,,Clear,0,2012-10-09 00:53:00
9:53 PM,77.0,75.2,94,30.01,10.0,Calm,Calm,-,N/A,,Clear,0,2012-10-09 01:53:00
10:53 PM,77.0,75.9,96,30.03,8.0,Calm,Calm,-,0.00,Rain,Light Rain,0,2012-10-09 02:53:00
11:53 PM,77.0,75.9,96,30.01,10.0,Calm,Calm,-,0.01,,Partly Cloudy,0,2012-10-09 03:53:00